Data No,UTC Date,UTC Time,Latitude,Longitude,Course(deg),Temp(degC),Sal(psu)
721,2023/7/24,12:00,35-35.85N,139-47.26E,202,26.883,24.899
722,2023/7/24,12:01,35-35.72N,139-47.21E,191,27.067,24.9631
723,2023/7/24,12:02,35-35.56N,139-47.23E,172,26.999,24.9252
724,2023/7/24,12:03,35-35.39N,139-47.31E,151,26.063,24.8852
725,2023/7/24,12:04,35-35.23N,139-47.46E,140,25.423,25.2326
726,2023/7/24,12:05,35-35.07N,139-47.63E,139,26.722,25.6842
727,2023/7/24,12:06,35-34.89N,139-47.84E,137,26.371,25.8561
728,2023/7/24,12:07,35-34.70N,139-48.05E,135,26.349,25.7143
729,2023/7/24,12:08,35-34.51N,139-48.30E,133,25.463,25.8236
730,2023/7/24,12:09,35-34.34N,139-48.55E,128,24.861,26.3917
731,2023/7/24,12:10,35-34.15N,139-48.85E,128,25.273,26.8428
732,2023/7/24,12:11,35-33.96N,139-49.15E,128,25.353,27.1336
733,2023/7/24,12:12,35-33.78N,139-49.42E,128,25.075,27.288
734,2023/7/24,12:13,35-33.59N,139-49.72E,128,24.649,27.5627
735,2023/7/24,12:14,35-33.44N,139-49.95E,127,24.742,27.9074
736,2023/7/24,12:15,35-33.25N,139-50.25E,129,24.873,28.1172
737,2023/7/24,12:16,35-33.01N,139-50.46E,151,25.148,28.0465
738,2023/7/24,12:17,35-32.70N,139-50.60E,161,25.668,27.8772
739,2023/7/24,12:18,35-32.45N,139-50.71E,161,25.739,27.7633
740,2023/7/24,12:19,35-32.19N,139-50.82E,161,25.742,28.0675
741,2023/7/24,12:20,35-31.91N,139-50.92E,164,26.02,28.3778
742,2023/7/24,12:21,35-31.62N,139-51.01E,167,26.393,28.5987
743,2023/7/24,12:22,35-31.33N,139-51.04E,176,26.762,28.6769
744,2023/7/24,12:23,35-31.04N,139-51.05E,178,26.848,28.7014
745,2023/7/24,12:24,35-30.74N,139-51.01E,188,27.158,28.6686
746,2023/7/24,12:25,35-30.46N,139-50.95E,190,26.988,28.6398
747,2023/7/24,12:26,35-30.17N,139-50.87E,193,26.938,28.6106
748,2023/7/24,12:27,35-29.90N,139-50.74E,204,27.084,28.6881
749,2023/7/24,12:28,35-29.62N,139-50.58E,205,26.982,28.6793
750,2023/7/24,12:29,35-29.37N,139-50.37E,217,26.788,28.6858
751,2023/7/24,12:30,35-29.13N,139-50.15E,217,26.893,28.7361
752,2023/7/24,12:31,35-28.92N,139-49.88E,230,27.043,28.7649
753,2023/7/24,12:32,35-28.74N,139-49.58E,234,27.027,28.726
754,2023/7/24,12:33,35-28.56N,139-49.27E,234,26.983,28.6749
755,2023/7/24,12:34,35-28.38N,139-48.96E,234,26.945,28.6459
756,2023/7/24,12:35,35-28.21N,139-48.67E,234,26.948,28.6129
757,2023/7/24,12:36,35-28.02N,139-48.36E,233,26.913,28.6036
758,2023/7/24,12:37,35-27.84N,139-48.05E,233,26.896,28.5821
759,2023/7/24,12:38,35-27.66N,139-47.74E,233,26.875,28.5913
760,2023/7/24,12:39,35-27.47N,139-47.44E,232,26.862,28.5979
761,2023/7/24,12:40,35-27.28N,139-47.14E,232,26.822,28.6241
762,2023/7/24,12:41,35-27.09N,139-46.82E,233,26.765,28.6381
763,2023/7/24,12:42,35-26.90N,139-46.51E,233,26.678,28.6737
764,2023/7/24,12:43,35-26.71N,139-46.21E,232,26.677,28.7177
765,2023/7/24,12:44,35-26.52N,139-45.91E,231,26.607,28.7426
766,2023/7/24,12:45,35-26.33N,139-45.61E,231,26.603,28.782
767,2023/7/24,12:46,35-26.13N,139-45.31E,230,26.45,28.8439
768,2023/7/24,12:47,35-25.93N,139-45.02E,230,26.43,28.9324
769,2023/7/24,12:48,35-25.72N,139-44.71E,230,26.448,29.0454
770,2023/7/24,12:49,35-25.53N,139-44.43E,228,26.436,29.1078
771,2023/7/24,12:50,35-25.31N,139-44.14E,228,26.415,29.1736
772,2023/7/24,12:51,35-25.11N,139-43.85E,228,26.503,29.2377
773,2023/7/24,12:52,35-24.90N,139-43.57E,228,26.586,29.2873
774,2023/7/24,12:53,35-24.66N,139-43.32E,212,26.87,29.2821
775,2023/7/24,12:54,35-24.40N,139-43.13E,211,26.89,29.2734
776,2023/7/24,12:55,35-24.14N,139-42.94E,211,26.755,29.1702
777,2023/7/24,12:56,35-23.86N,139-42.76E,205,26.02,29.1429
778,2023/7/24,12:57,35-23.58N,139-42.62E,201,25.135,29.3499
779,2023/7/24,12:58,35-23.28N,139-42.48E,201,25.226,29.6941
780,2023/7/24,12:59,35-22.99N,139-42.37E,194,25.018,29.9988
781,2023/7/24,13:00,35-22.68N,139-42.33E,182,25.281,30.1381
782,2023/7/24,13:01,35-22.35N,139-42.34E,177,25.564,30.1736
783,2023/7/24,13:02,35-22.06N,139-42.37E,173,25.842,30.1373
784,2023/7/24,13:03,35-21.73N,139-42.41E,174,26.154,30.0133
785,2023/7/24,13:04,35-21.44N,139-42.45E,174,26.252,29.8507
786,2023/7/24,13:05,35-21.13N,139-42.49E,174,26.219,29.7363
787,2023/7/24,13:06,35-20.86N,139-42.52E,173,26.321,29.8005
788,2023/7/24,13:07,35-20.64N,139-42.55E,173,26.262,29.8187
789,2023/7/24,13:08,35-20.42N,139-42.58E,172,26.212,29.8128
790,2023/7/24,13:09,35-20.22N,139-42.62E,171,26.109,29.8555
791,2023/7/24,13:10,35-20.01N,139-42.65E,171,26.041,29.9668
792,2023/7/24,13:11,35-19.78N,139-42.70E,172,25.933,30.0391
793,2023/7/24,13:12,35-19.60N,139-42.77E,149,25.691,30.1465
794,2023/7/24,13:13,35-19.46N,139-42.92E,139,25.519,30.2844
795,2023/7/24,13:14,35-19.30N,139-43.07E,143,25.583,30.4505
796,2023/7/24,13:15,35-19.12N,139-43.22E,144,25.544,30.533
797,2023/7/24,13:16,35-18.96N,139-43.36E,144,25.574,30.5929
798,2023/7/24,13:17,35-18.79N,139-43.51E,144,25.612,30.6051
799,2023/7/24,13:18,35-18.61N,139-43.67E,145,25.611,30.6049
800,2023/7/24,13:19,35-18.42N,139-43.82E,145,25.561,30.5896
801,2023/7/24,13:20,35-18.24N,139-43.97E,145,25.608,30.5712
802,2023/7/24,13:21,35-18.06N,139-44.13E,144,25.642,30.5646
803,2023/7/24,13:22,35-17.88N,139-44.28E,144,25.643,30.5648
804,2023/7/24,13:23,35-17.70N,139-44.44E,144,25.649,30.5521
805,2023/7/24,13:24,35-17.52N,139-44.60E,144,25.66,30.5727
806,2023/7/24,13:25,35-17.34N,139-44.75E,144,25.633,30.5807
807,2023/7/24,13:26,35-17.16N,139-44.91E,145,25.624,30.5951
808,2023/7/24,13:27,35-16.98N,139-45.06E,145,25.658,30.6154
809,2023/7/24,13:28,35-16.79N,139-45.22E,145,25.689,30.6326
810,2023/7/24,13:29,35-16.61N,139-45.38E,145,25.711,30.6417
811,2023/7/24,13:30,35-16.43N,139-45.53E,145,25.742,30.6441
812,2023/7/24,13:31,35-16.24N,139-45.69E,145,25.793,30.6449
813,2023/7/24,13:32,35-16.06N,139-45.85E,145,25.808,30.6396
814,2023/7/24,13:33,35-15.88N,139-46.00E,144,25.88,30.6464
815,2023/7/24,13:34,35-15.70N,139-46.16E,145,25.93,30.6343
816,2023/7/24,13:35,35-15.51N,139-46.31E,149,25.933,30.603
817,2023/7/24,13:36,35-15.30N,139-46.37E,172,26.006,30.5935
818,2023/7/24,13:37,35-15.08N,139-46.38E,177,26.043,30.5722
819,2023/7/24,13:38,35-14.86N,139-46.39E,177,26.012,30.5579
820,2023/7/24,13:39,35-14.64N,139-46.40E,178,25.992,30.5753
821,2023/7/24,13:40,35-14.41N,139-46.41E,177,25.841,30.5874
822,2023/7/24,13:41,35-14.19N,139-46.42E,177,25.833,30.6568
823,2023/7/24,13:42,35-13.98N,139-46.43E,177,25.639,30.716
824,2023/7/24,13:43,35-13.75N,139-46.44E,178,25.485,30.8124
825,2023/7/24,13:44,35-13.53N,139-46.45E,178,25.328,30.9622
826,2023/7/24,13:45,35-13.31N,139-46.46E,179,25.437,31.1401
827,2023/7/24,13:46,35-13.08N,139-46.45E,180,25.432,31.2343
828,2023/7/24,13:47,35-12.85N,139-46.45E,180,25.56,31.2329
829,2023/7/24,13:48,35-12.63N,139-46.42E,190,25.739,31.2529
830,2023/7/24,13:49,35-12.39N,139-46.34E,195,25.859,31.1249
831,2023/7/24,13:50,35-12.13N,139-46.25E,194,25.655,30.9798
832,2023/7/24,13:51,35-11.86N,139-46.16E,195,25.548,30.9591
833,2023/7/24,13:52,35-11.59N,139-46.07E,195,25.497,31.0599
834,2023/7/24,13:53,35-11.31N,139-45.98E,195,25.491,31.1028
835,2023/7/24,13:54,35-11.02N,139-45.88E,195,25.43,31.1867
836,2023/7/24,13:55,35-10.75N,139-45.79E,195,25.637,31.3311
837,2023/7/24,13:56,35-10.46N,139-45.69E,194,25.747,31.4864
838,2023/7/24,13:57,35-10.18N,139-45.60E,195,25.87,31.4152
839,2023/7/24,13:58,35-09.90N,139-45.50E,195,26.119,31.2165
840,2023/7/24,13:59,35-09.61N,139-45.40E,195,26.255,31.4508
841,2023/7/24,14:00,35-09.34N,139-45.32E,193,26.03,31.7849
842,2023/7/24,14:01,35-09.06N,139-45.23E,193,25.85,32.153
843,2023/7/24,14:02,35-08.77N,139-45.14E,194,26.017,32.4549
844,2023/7/24,14:03,35-08.51N,139-45.06E,194,26.095,32.6476
845,2023/7/24,14:04,35-08.23N,139-44.97E,194,26.217,32.7729
846,2023/7/24,14:05,35-07.95N,139-44.89E,194,26.325,32.8651
847,2023/7/24,14:06,35-07.68N,139-44.80E,194,26.368,32.924
848,2023/7/24,14:07,35-07.41N,139-44.71E,196,26.344,32.9711
849,2023/7/24,14:08,35-07.14N,139-44.59E,200,26.243,33.0027
850,2023/7/24,14:09,35-06.88N,139-44.47E,200,25.904,33.0329
851,2023/7/24,14:10,35-06.61N,139-44.34E,200,25.717,33.0649
852,2023/7/24,14:11,35-06.35N,139-44.23E,200,25.503,33.0949
853,2023/7/24,14:12,35-06.09N,139-44.11E,200,25.749,33.1229
854,2023/7/24,14:13,35-05.83N,139-43.98E,201,25.771,33.1186
855,2023/7/24,14:14,35-05.56N,139-43.86E,200,25.795,33.1144
856,2023/7/24,14:15,35-05.30N,139-43.74E,200,25.837,33.1281
857,2023/7/24,14:16,35-05.03N,139-43.62E,200,25.675,33.1078
858,2023/7/24,14:17,35-04.77N,139-43.53E,191,25.466,33.0676
859,2023/7/24,14:18,35-04.49N,139-43.47E,188,25.455,33.0528
860,2023/7/24,14:19,35-04.21N,139-43.42E,188,25.315,33.0428
861,2023/7/24,14:20,35-03.94N,139-43.38E,184,25.249,33.0364
862,2023/7/24,14:21,35-03.65N,139-43.35E,183,25.463,33.0496
863,2023/7/24,14:22,35-03.38N,139-43.33E,184,25.616,33.053
864,2023/7/24,14:23,35-03.09N,139-43.30E,184,25.642,33.0433
865,2023/7/24,14:24,35-02.80N,139-43.27E,184,25.652,33.026
866,2023/7/24,14:25,35-02.51N,139-43.25E,183,25.631,33.0298
867,2023/7/24,14:26,35-02.22N,139-43.23E,183,25.618,33.0325
868,2023/7/24,14:27,35-01.94N,139-43.20E,183,25.619,33.0361
869,2023/7/24,14:28,35-01.65N,139-43.18E,183,25.637,33.0497
870,2023/7/24,14:29,35-01.36N,139-43.16E,183,25.649,33.0607
871,2023/7/24,14:30,35-01.07N,139-43.14E,183,25.662,33.065
872,2023/7/24,14:31,35-00.78N,139-43.12E,183,25.597,33.0655
873,2023/7/24,14:32,35-00.49N,139-43.10E,182,25.533,33.0731
874,2023/7/24,14:33,35-00.19N,139-43.09E,181,25.502,33.0895
875,2023/7/24,14:34,34-59.89N,139-43.08E,181,25.574,33.1261
876,2023/7/24,14:35,34-59.59N,139-43.06E,182,25.634,33.1626
877,2023/7/24,14:36,34-59.30N,139-43.05E,180,25.644,33.1867
878,2023/7/24,14:37,34-59.01N,139-43.07E,174,25.549,33.2084
879,2023/7/24,14:38,34-58.71N,139-43.11E,174,25.586,33.2192
880,2023/7/24,14:39,34-58.41N,139-43.15E,173,25.628,33.2371
881,2023/7/24,14:40,34-58.11N,139-43.19E,174,25.706,33.2368
882,2023/7/24,14:41,34-57.82N,139-43.23E,173,25.77,33.2369
883,2023/7/24,14:42,34-57.51N,139-43.27E,174,25.826,33.2306
884,2023/7/24,14:43,34-57.21N,139-43.33E,167,25.808,33.2345
885,2023/7/24,14:44,34-56.91N,139-43.42E,166,25.869,33.2474
886,2023/7/24,14:45,34-56.62N,139-43.52E,160,25.856,33.2409
887,2023/7/24,14:46,34-56.35N,139-43.69E,150,25.807,33.2455
888,2023/7/24,14:47,34-56.08N,139-43.89E,148,25.925,33.2436
889,2023/7/24,14:48,34-55.81N,139-44.09E,148,25.979,33.2482
890,2023/7/24,14:49,34-55.53N,139-44.30E,148,25.986,33.2452
891,2023/7/24,14:50,34-55.26N,139-44.50E,148,25.854,33.2428
892,2023/7/24,14:51,34-54.97N,139-44.70E,149,25.792,33.2372
893,2023/7/24,14:52,34-54.69N,139-44.90E,149,25.674,33.2455
894,2023/7/24,14:53,34-54.41N,139-45.11E,149,25.796,33.2498
895,2023/7/24,14:54,34-54.12N,139-45.31E,150,25.874,33.2477
896,2023/7/24,14:55,34-53.83N,139-45.51E,150,25.78,33.2476
897,2023/7/24,14:56,34-53.51N,139-45.73E,150,25.65,33.2412
898,2023/7/24,14:57,34-53.23N,139-45.96E,146,25.565,33.2474
899,2023/7/24,14:58,34-52.97N,139-46.18E,144,25.683,33.244
900,2023/7/24,14:59,34-52.72N,139-46.45E,136,25.482,33.2476
901,2023/7/24,15:00,34-52.48N,139-46.75E,133,25.561,33.256
902,2023/7/24,15:01,34-52.28N,139-47.00E,134,25.924,33.2634
903,2023/7/24,15:02,34-52.04N,139-47.30E,134,25.829,33.26
904,2023/7/24,15:03,34-51.81N,139-47.59E,130,26.018,33.2497
905,2023/7/24,15:04,34-51.57N,139-47.96E,127,26.141,33.2487
906,2023/7/24,15:05,34-51.40N,139-48.30E,121,26.216,33.2398
907,2023/7/24,15:06,34-51.26N,139-48.64E,115,26.026,33.2378
908,2023/7/24,15:07,34-51.16N,139-49.00E,107,25.427,33.2287
909,2023/7/24,15:08,34-51.10N,139-49.36E,101,25.169,33.252
910,2023/7/24,15:09,34-51.05N,139-49.67E,102,25.408,33.2836
911,2023/7/24,15:10,34-50.98N,139-50.02E,102,25.428,33.3071
912,2023/7/24,15:11,34-50.93N,139-50.38E,99,24.902,33.2993
913,2023/7/24,15:12,34-50.90N,139-50.75E,95,24.826,33.3118
914,2023/7/24,15:13,34-50.89N,139-51.10E,89,24.422,33.3491
915,2023/7/24,15:14,34-50.89N,139-51.44E,89,22.844,33.3516
916,2023/7/24,15:15,34-50.90N,139-51.82E,90,24.258,33.3893
917,2023/7/24,15:16,34-50.90N,139-52.16E,88,24.678,33.4467
918,2023/7/24,15:17,34-50.91N,139-52.45E,87,25.072,33.4135
919,2023/7/24,15:18,34-50.92N,139-52.78E,87,25.202,33.3925
920,2023/7/24,15:19,34-50.93N,139-53.14E,87,25.215,33.3609
921,2023/7/24,15:20,34-50.97N,139-53.45E,81,25.201,33.3559
922,2023/7/24,15:21,34-51.01N,139-53.79E,80,24.931,33.3551
923,2023/7/24,15:22,34-51.06N,139-54.14E,81,24.953,33.3755
924,2023/7/24,15:23,34-51.10N,139-54.47E,81,24.986,33.3912
925,2023/7/24,15:24,34-51.14N,139-54.82E,80,24.923,33.3851
926,2023/7/24,15:25,34-51.19N,139-55.16E,81,24.891,33.3848
927,2023/7/24,15:26,34-51.23N,139-55.50E,81,24.846,33.3876
928,2023/7/24,15:27,34-51.28N,139-55.86E,79,24.778,33.3901
929,2023/7/24,15:28,34-51.34N,139-56.19E,76,24.677,33.3838
930,2023/7/24,15:29,34-51.41N,139-56.54E,76,24.707,33.4015
931,2023/7/24,15:30,34-51.48N,139-56.89E,77,24.801,33.3863
932,2023/7/24,15:31,34-51.54N,139-57.21E,76,24.893,33.3869
933,2023/7/24,15:32,34-51.60N,139-57.57E,77,25.005,33.3796
934,2023/7/24,15:33,34-51.66N,139-57.90E,77,25.096,33.3772
935,2023/7/24,15:34,34-51.74N,139-58.25E,71,24.992,33.367
936,2023/7/24,15:35,34-51.84N,139-58.58E,68,24.963,33.3582
937,2023/7/24,15:36,34-51.95N,139-58.91E,68,24.943,33.37
938,2023/7/24,15:37,34-52.07N,139-59.25E,63,24.786,33.3729
939,2023/7/24,15:38,34-52.21N,139-59.55E,61,24.443,33.3765
940,2023/7/24,15:39,34-52.35N,139-59.87E,62,24.348,33.3955
941,2023/7/24,15:40,34-52.49N,140-00.19E,62,24.331,33.4092
942,2023/7/24,15:41,34-52.62N,140-00.50E,62,24.002,33.415
943,2023/7/24,15:42,34-52.76N,140-00.82E,61,23.885,33.417
944,2023/7/24,15:43,34-52.90N,140-01.13E,62,24.083,33.4341
945,2023/7/24,15:44,34-53.04N,140-01.46E,63,24.284,33.4375
946,2023/7/24,15:45,34-53.17N,140-01.78E,62,24.421,33.4259
947,2023/7/24,15:46,34-53.31N,140-02.10E,62,24.139,33.4155
948,2023/7/24,15:47,34-53.46N,140-02.43E,62,24.482,33.3975
949,2023/7/24,15:48,34-53.59N,140-02.75E,62,24.755,33.4014
950,2023/7/24,15:49,34-53.74N,140-03.09E,62,24.435,33.388
951,2023/7/24,15:50,34-53.88N,140-03.41E,60,24.33,33.3641
952,2023/7/24,15:51,34-54.03N,140-03.73E,60,24.428,33.3501
953,2023/7/24,15:52,34-54.18N,140-04.06E,60,24.456,33.3473
954,2023/7/24,15:53,34-54.33N,140-04.38E,60,24.356,33.332
955,2023/7/24,15:54,34-54.48N,140-04.71E,60,24.241,33.3345
956,2023/7/24,15:55,34-54.62N,140-05.01E,59,24.184,33.3504
957,2023/7/24,15:56,34-54.77N,140-05.33E,59,24.253,33.3624
958,2023/7/24,15:57,34-54.93N,140-05.64E,58,24.263,33.3655
959,2023/7/24,15:58,34-55.08N,140-05.94E,59,24.256,33.3615
960,2023/7/24,15:59,34-55.23N,140-06.26E,60,24.572,33.3837
961,2023/7/24,16:00,34-55.37N,140-06.57E,60,24.722,33.3784
962,2023/7/24,16:01,34-55.51N,140-06.88E,60,24.876,33.3735
963,2023/7/24,16:02,34-55.66N,140-07.19E,60,24.881,33.3529
964,2023/7/24,16:03,34-55.80N,140-07.50E,59,24.841,33.3517
965,2023/7/24,16:04,34-55.95N,140-07.83E,60,24.959,33.3622
966,2023/7/24,16:05,34-56.09N,140-08.12E,60,24.906,33.3677
967,2023/7/24,16:06,34-56.23N,140-08.43E,62,24.992,33.3675
968,2023/7/24,16:07,34-56.38N,140-08.76E,62,25.046,33.3789
969,2023/7/24,16:08,34-56.51N,140-09.07E,60,25.051,33.3809
970,2023/7/24,16:09,34-56.66N,140-09.38E,59,25.207,33.3825
971,2023/7/24,16:10,34-56.81N,140-09.69E,60,25.271,33.3909
972,2023/7/24,16:11,34-56.96N,140-10.00E,60,24.97,33.3849
973,2023/7/24,16:12,34-57.11N,140-10.32E,60,25.084,33.3852
974,2023/7/24,16:13,34-57.25N,140-10.63E,60,25.199,33.4117
975,2023/7/24,16:14,34-57.40N,140-10.96E,60,25.225,33.4079
976,2023/7/24,16:15,34-57.55N,140-11.27E,60,25.28,33.4052
977,2023/7/24,16:16,34-57.70N,140-11.58E,60,25.306,33.4062
978,2023/7/24,16:17,34-57.85N,140-11.91E,60,25.242,33.412
979,2023/7/24,16:18,34-57.99N,140-12.22E,60,25.287,33.4119
980,2023/7/24,16:19,34-58.14N,140-12.54E,61,25.387,33.4263
981,2023/7/24,16:20,34-58.29N,140-12.86E,60,25.298,33.4074
982,2023/7/24,16:21,34-58.44N,140-13.19E,60,25.291,33.4188
983,2023/7/24,16:22,34-58.58N,140-13.51E,61,25.222,33.4351
984,2023/7/24,16:23,34-58.72N,140-13.82E,61,25.306,33.4406
985,2023/7/24,16:24,34-58.88N,140-14.15E,60,25.212,33.447
986,2023/7/24,16:25,34-59.02N,140-14.45E,59,25.108,33.4488
987,2023/7/24,16:26,34-59.17N,140-14.77E,60,25.148,33.4663
988,2023/7/24,16:27,34-59.32N,140-15.09E,60,25.185,33.4739
989,2023/7/24,16:28,34-59.47N,140-15.40E,60,25.137,33.4753
990,2023/7/24,16:29,34-59.62N,140-15.73E,59,25.07,33.4679
991,2023/7/24,16:30,34-59.77N,140-16.04E,59,25.151,33.4666
992,2023/7/24,16:31,34-59.93N,140-16.36E,60,25.167,33.4693
993,2023/7/24,16:32,35-00.08N,140-16.69E,59,25.138,33.4607
994,2023/7/24,16:33,35-00.23N,140-17.00E,59,25.07,33.4648
995,2023/7/24,16:34,35-00.38N,140-17.31E,59,25.045,33.4769
996,2023/7/24,16:35,35-00.54N,140-17.63E,59,24.943,33.481
997,2023/7/24,16:36,35-00.69N,140-17.94E,59,24.858,33.4901
998,2023/7/24,16:37,35-00.85N,140-18.26E,59,24.743,33.5055
999,2023/7/24,16:38,35-00.99N,140-18.56E,60,24.561,33.5176
1000,2023/7/24,16:39,35-01.14N,140-18.88E,59,24.443,33.5153
1001,2023/7/24,16:40,35-01.30N,140-19.20E,58,24.277,33.5202
1002,2023/7/24,16:41,35-01.44N,140-19.50E,60,24.057,33.5214
1003,2023/7/24,16:42,35-01.59N,140-19.82E,60,23.791,33.5199
1004,2023/7/24,16:43,35-01.74N,140-20.13E,60,23.649,33.5067
1005,2023/7/24,16:44,35-01.89N,140-20.44E,60,23.591,33.5095
1006,2023/7/24,16:45,35-02.04N,140-20.76E,60,23.91,33.5084
1007,2023/7/24,16:46,35-02.18N,140-21.07E,62,24.257,33.4955
1008,2023/7/24,16:47,35-02.31N,140-21.40E,63,24.6,33.4794
1009,2023/7/24,16:48,35-02.45N,140-21.72E,63,24.797,33.4503
1010,2023/7/24,16:49,35-02.58N,140-22.04E,63,24.86,33.4385
1011,2023/7/24,16:50,35-02.71N,140-22.38E,63,24.975,33.424
1012,2023/7/24,16:51,35-02.84N,140-22.69E,63,24.936,33.4186
1013,2023/7/24,16:52,35-02.97N,140-23.03E,63,24.907,33.4095
1014,2023/7/24,16:53,35-03.10N,140-23.35E,64,24.753,33.4184
1015,2023/7/24,16:54,35-03.23N,140-23.66E,63,24.164,33.4288
1016,2023/7/24,16:55,35-03.36N,140-23.98E,64,23.533,33.4637
1017,2023/7/24,16:56,35-03.48N,140-24.30E,63,23.152,33.5231
1018,2023/7/24,16:57,35-03.62N,140-24.62E,64,23.237,33.5529
1019,2023/7/24,16:58,35-03.75N,140-24.94E,62,23.023,33.581
1020,2023/7/24,16:59,35-03.88N,140-25.25E,62,23.067,33.5793
1021,2023/7/24,17:00,35-04.02N,140-25.56E,59,22.96,33.5845
1022,2023/7/24,17:01,35-04.17N,140-25.86E,58,22.82,33.5834
1023,2023/7/24,17:02,35-04.33N,140-26.16E,56,22.897,33.5864
1024,2023/7/24,17:03,35-04.49N,140-26.46E,57,22.999,33.5836
1025,2023/7/24,17:04,35-04.65N,140-26.75E,56,23.078,33.5776
1026,2023/7/24,17:05,35-04.81N,140-27.06E,56,23.122,33.5756
1027,2023/7/24,17:06,35-04.97N,140-27.35E,56,23.213,33.5635
1028,2023/7/24,17:07,35-05.14N,140-27.66E,56,23.235,33.5672
1029,2023/7/24,17:08,35-05.29N,140-27.94E,56,23.102,33.5693
1030,2023/7/24,17:09,35-05.46N,140-28.24E,56,23.109,33.5667
1031,2023/7/24,17:10,35-05.62N,140-28.55E,56,22.895,33.563
1032,2023/7/24,17:11,35-05.78N,140-28.84E,56,22.989,33.5658
1033,2023/7/24,17:12,35-05.94N,140-29.15E,56,22.953,33.5725
1034,2023/7/24,17:13,35-06.10N,140-29.44E,56,22.92,33.5668
1035,2023/7/24,17:14,35-06.27N,140-29.74E,53,23.076,33.5691
1036,2023/7/24,17:15,35-06.45N,140-30.03E,52,22.989,33.5648
1037,2023/7/24,17:16,35-06.62N,140-30.31E,52,22.886,33.5558
1038,2023/7/24,17:17,35-06.80N,140-30.60E,53,22.9,33.5505
1039,2023/7/24,17:18,35-06.98N,140-30.89E,50,22.917,33.5552
1040,2023/7/24,17:19,35-07.17N,140-31.15E,49,22.904,33.5535
1041,2023/7/24,17:20,35-07.37N,140-31.41E,43,22.757,33.5561
1042,2023/7/24,17:21,35-07.59N,140-31.65E,40,22.653,33.5579
1043,2023/7/24,17:22,35-07.82N,140-31.86E,36,22.929,33.5708
1044,2023/7/24,17:23,35-08.05N,140-32.07E,37,23.042,33.5706
1045,2023/7/24,17:24,35-08.28N,140-32.29E,38,23.133,33.5534
1046,2023/7/24,17:25,35-08.51N,140-32.51E,38,23.103,33.5388
1047,2023/7/24,17:26,35-08.75N,140-32.74E,38,23.018,33.5351
1048,2023/7/24,17:27,35-08.98N,140-32.96E,37,23.044,33.5419
1049,2023/7/24,17:28,35-09.21N,140-33.18E,38,23.048,33.5502
1050,2023/7/24,17:29,35-09.44N,140-33.40E,38,22.923,33.5547
1051,2023/7/24,17:30,35-09.67N,140-33.62E,37,23.074,33.5526
1052,2023/7/24,17:31,35-09.92N,140-33.84E,36,23.199,33.5526
1053,2023/7/24,17:32,35-10.16N,140-34.06E,35,23.14,33.5524
1054,2023/7/24,17:33,35-10.39N,140-34.25E,34,23.164,33.548
1055,2023/7/24,17:34,35-10.64N,140-34.46E,34,23.276,33.5495
1056,2023/7/24,17:35,35-10.88N,140-34.66E,34,23.422,33.5402
1057,2023/7/24,17:36,35-11.12N,140-34.87E,34,23.477,33.5379
1058,2023/7/24,17:37,35-11.37N,140-35.08E,33,23.51,33.5199
1059,2023/7/24,17:38,35-11.61N,140-35.28E,35,23.606,33.5027
1060,2023/7/24,17:39,35-11.86N,140-35.49E,33,23.659,33.5035
1061,2023/7/24,17:40,35-12.12N,140-35.70E,34,23.685,33.4976
1062,2023/7/24,17:41,35-12.36N,140-35.90E,34,23.599,33.4968
1063,2023/7/24,17:42,35-12.61N,140-36.12E,35,23.6,33.4992
1064,2023/7/24,17:43,35-12.85N,140-36.32E,34,23.599,33.498
1065,2023/7/24,17:44,35-13.10N,140-36.53E,34,23.339,33.5082
1066,2023/7/24,17:45,35-13.35N,140-36.74E,34,23.172,33.5226
1067,2023/7/24,17:46,35-13.59N,140-36.94E,35,23.14,33.5442
1068,2023/7/24,17:47,35-13.83N,140-37.15E,34,22.886,33.5607
1069,2023/7/24,17:48,35-14.08N,140-37.35E,34,22.819,33.5662
1070,2023/7/24,17:49,35-14.33N,140-37.56E,33,22.865,33.5942
1071,2023/7/24,17:50,35-14.58N,140-37.76E,32,22.62,33.5927
1072,2023/7/24,17:51,35-14.83N,140-37.96E,34,22.188,33.5961
1073,2023/7/24,17:52,35-15.07N,140-38.15E,33,21.911,33.6273
1074,2023/7/24,17:53,35-15.33N,140-38.36E,35,21.574,33.6542
1075,2023/7/24,17:54,35-15.56N,140-38.56E,34,21.559,33.6669
1076,2023/7/24,17:55,35-15.80N,140-38.77E,36,21.291,33.6893
1077,2023/7/24,17:56,35-16.04N,140-38.98E,35,20.78,33.6775
1078,2023/7/24,17:57,35-16.27N,140-39.18E,35,20.621,33.6823
1079,2023/7/24,17:58,35-16.51N,140-39.38E,32,20.503,33.7085
1080,2023/7/24,17:59,35-16.76N,140-39.57E,32,21.348,33.6969
1081,2023/7/24,18:00,35-17.00N,140-39.77E,34,21.491,33.6928
1082,2023/7/24,18:01,35-17.24N,140-39.97E,33,21.214,33.6586
1083,2023/7/24,18:02,35-17.48N,140-40.17E,34,21.373,33.6515
1084,2023/7/24,18:03,35-17.72N,140-40.37E,34,21.285,33.6621
1085,2023/7/24,18:04,35-17.96N,140-40.57E,34,21.011,33.6717
1086,2023/7/24,18:05,35-18.20N,140-40.78E,34,20.567,33.6714
1087,2023/7/24,18:06,35-18.44N,140-40.99E,34,20.412,33.681
1088,2023/7/24,18:07,35-18.68N,140-41.18E,34,19.991,33.7075
1089,2023/7/24,18:08,35-18.92N,140-41.39E,35,19.869,33.7098
1090,2023/7/24,18:09,35-19.16N,140-41.60E,35,19.758,33.718
1091,2023/7/24,18:10,35-19.41N,140-41.78E,30,20.556,33.7203
1092,2023/7/24,18:11,35-19.65N,140-41.96E,32,21.065,33.7225
1093,2023/7/24,18:12,35-19.90N,140-42.16E,32,21.329,33.6852
1094,2023/7/24,18:13,35-20.14N,140-42.34E,31,21.716,33.6501
1095,2023/7/24,18:14,35-20.39N,140-42.53E,31,22.403,33.6279
1096,2023/7/24,18:15,35-20.65N,140-42.73E,33,22.66,33.6136
1097,2023/7/24,18:16,35-20.88N,140-42.90E,30,22.704,33.5851
1098,2023/7/24,18:17,35-21.13N,140-43.10E,32,22.857,33.5713
1099,2023/7/24,18:18,35-21.38N,140-43.28E,31,22.998,33.5786
1100,2023/7/24,18:19,35-21.62N,140-43.49E,36,22.875,33.591
1101,2023/7/24,18:20,35-21.87N,140-43.70E,32,22.008,33.591
1102,2023/7/24,18:21,35-22.10N,140-43.88E,32,22.445,33.6082
1103,2023/7/24,18:22,35-22.34N,140-44.08E,32,22.395,33.643
1104,2023/7/24,18:23,35-22.59N,140-44.26E,30,22.441,33.6227
1105,2023/7/24,18:24,35-22.83N,140-44.44E,30,22.157,33.625
1106,2023/7/24,18:25,35-23.10N,140-44.64E,31,22.38,33.6301
1107,2023/7/24,18:26,35-23.34N,140-44.82E,30,22.497,33.6415
1108,2023/7/24,18:27,35-23.60N,140-45.01E,31,22.939,33.6105
1109,2023/7/24,18:28,35-23.87N,140-45.22E,34,23.052,33.5942
1110,2023/7/24,18:29,35-24.10N,140-45.42E,36,22.811,33.5579
1111,2023/7/24,18:30,35-24.34N,140-45.64E,35,22.978,33.542
1112,2023/7/24,18:31,35-24.59N,140-45.85E,35,23.213,33.5597
1113,2023/7/24,18:32,35-24.86N,140-46.09E,35,23.321,33.5456
1114,2023/7/24,18:33,35-25.10N,140-46.30E,35,23.393,33.5337